Weather History for Truckee-Tahoe, CA

Change the Weather History Date:

Tuesday, October 16, 2012

  Actual Average Record
Temperature  
Mean Temperature 52 °F -  
Max Temperature 69 °F 62 °F 78 °F (1954)
Min Temperature 35 °F 27 °F 15 °F (2013)
Degree Days  
Heating Degree Days 13    
Growing Degree Days 2 (Base 50)    
Moisture  
Dew Point 34 °F    
Average Humidity 64    
Maximum Humidity 87    
Minimum Humidity 27    
Precipitation  
Precipitation 0.00 in - - ()
Sea Level Pressure  
Sea Level Pressure 30.18 in    
Wind  
Wind Speed 4 mph (WSW)    
Max Wind Speed 14 mph    
Max Gust Speed 22 mph    
Visibility 10 miles    
Events      
Averages and records for this station are not official NWS values.
T = Trace of Precipitation, MM = Missing Value Source: NWS Daily Summary

Daily Weather History Graph

Daily Weather History Graph

Search for Another Location

Airport:

Trip Planner

Search our weather history database for the weather conditions in past years. The results will help you decide how hot, cold, wet, or windy it might be!

Date:

Astronomy

Oct. 16, 2012 Rise Set
Actual Time 7:11 AM PDT 6:19 PM PDT
Civil Twilight 6:44 AM PDT 6:46 PM PDT
Nautical Twilight 6:13 AM PDT 7:17 PM PDT
Astronomical Twilight 5:42 AM PDT 7:48 PM PDT
Moon 8:40 AM PDT (10/16) 7:08 PM PDT (10/16)
Length of Visible Light 12h 01m
Length of Day
11h 07m
New Moon, 2% of the Moon is Illuminated
Oct 16
New Moon
Oct 21
First Quarter
Oct 29
Full
Nov 6
Last Quarter
Nov 13
New

Hourly Weather History & Observations

Time (PDT) Temp. Windchill Dew Point Humidity Pressure Visibility Wind Dir Wind Speed Gust Speed Precip Events Conditions
12:15 AM 44.6 °F 41.4 °F 32.0 °F 61% 30.21 in 10.0 mi NW 5.8 mph - N/A   Clear
12:35 AM 42.8 °F - 32.0 °F 66% 30.21 in 10.0 mi Calm Calm - N/A   Clear
12:55 AM 37.4 °F 34.9 °F 28.4 °F 70% 30.21 in 10.0 mi South 3.5 mph - N/A   Clear
1:15 AM 41.0 °F 38.0 °F 32.0 °F 70% 30.21 in 10.0 mi SSE 4.6 mph - N/A   Clear
1:35 AM 39.2 °F 35.9 °F 32.0 °F 75% 30.20 in 10.0 mi SSE 4.6 mph - N/A   Clear
1:55 AM 41.0 °F 38.0 °F 32.0 °F 70% 30.19 in 10.0 mi WNW 4.6 mph - N/A   Clear
2:15 AM 41.0 °F - 32.0 °F 70% 30.19 in 10.0 mi Calm Calm - N/A   Clear
2:35 AM 37.4 °F - 30.2 °F 75% 30.20 in 10.0 mi Calm Calm - N/A   Clear
2:55 AM 35.6 °F - 30.2 °F 81% 30.20 in 10.0 mi Calm Calm - N/A   Clear
3:15 AM 39.2 °F - 32.0 °F 75% 30.20 in 10.0 mi Calm Calm - N/A   Clear
3:35 AM 39.2 °F - 33.8 °F 81% 30.20 in 10.0 mi Calm Calm - N/A   Clear
3:55 AM 37.4 °F 33.8 °F 32.0 °F 81% 30.19 in 10.0 mi SSW 4.6 mph - N/A   Clear
4:15 AM 39.2 °F - 32.0 °F 75% 30.19 in 10.0 mi Calm Calm - N/A   Clear
4:35 AM 37.4 °F - 32.0 °F 81% 30.19 in 10.0 mi Calm Calm - N/A   Clear
4:55 AM 39.2 °F - 32.0 °F 75% 30.20 in 10.0 mi Calm Calm - N/A   Clear
5:15 AM 37.4 °F - 32.0 °F 81% 30.20 in 10.0 mi Calm Calm - N/A   Clear
5:35 AM 35.6 °F - 32.0 °F 87% 30.20 in 10.0 mi Calm Calm - N/A   Clear
5:55 AM 35.6 °F 32.8 °F 30.2 °F 81% 30.20 in 10.0 mi SE 3.5 mph - N/A   Clear
6:15 AM 37.4 °F 33.8 °F 32.0 °F 81% 30.19 in 10.0 mi South 4.6 mph - N/A   Clear
6:35 AM 37.4 °F 33.8 °F 32.0 °F 81% 30.19 in 10.0 mi NNW 4.6 mph - N/A   Clear
6:55 AM 35.6 °F 31.7 °F 32.0 °F 87% 30.20 in 10.0 mi North 4.6 mph - N/A   Partly Cloudy
7:50 AM 37.4 °F - 32.0 °F 81% 30.19 in 10.0 mi Calm Calm - N/A   Partly Cloudy
8:55 AM 46.4 °F 45.2 °F 39.2 °F 76% 30.20 in 10.0 mi South 3.5 mph - N/A   Partly Cloudy
9:45 AM 59.0 °F - 44.6 °F 59% 30.20 in 10.0 mi Calm Calm - N/A   Partly Cloudy
10:47 AM 66.2 °F - 44.6 °F 46% 30.19 in 10.0 mi West 13.8 mph 19.6 mph N/A   Mostly Cloudy
11:55 AM 66.2 °F - 41.0 °F 40% 30.17 in 10.0 mi West 9.2 mph 17.3 mph N/A   Partly Cloudy
12:50 PM 68.0 °F - 41.0 °F 37% 30.17 in 10.0 mi WNW 12.7 mph 19.6 mph N/A   Scattered Clouds
1:50 PM 68.0 °F - 39.2 °F 35% 30.14 in 10.0 mi West 13.8 mph 21.9 mph N/A   Partly Cloudy
2:55 PM 69.8 °F - 37.4 °F 31% 30.14 in 10.0 mi West 12.7 mph 20.7 mph N/A   Partly Cloudy
3:50 PM 69.8 °F - 33.8 °F 27% 30.13 in 10.0 mi West 9.2 mph - N/A   Clear
4:50 PM 68.0 °F - 33.8 °F 28% 30.13 in 10.0 mi West 11.5 mph - N/A   Clear
5:45 PM 64.4 °F - 35.6 °F 34% 30.13 in 10.0 mi WSW 5.8 mph - N/A   Clear
5:55 PM 64.4 °F - 35.6 °F 34% 30.13 in 10.0 mi West 5.8 mph - N/A   Clear
6:15 PM 62.6 °F - 37.4 °F 39% 30.13 in 10.0 mi West 6.9 mph - N/A   Clear
6:35 PM 60.8 °F - 37.4 °F 42% 30.14 in 10.0 mi NNW 6.9 mph - N/A   Clear
6:55 PM 59.0 °F - 37.4 °F 45% 30.14 in 10.0 mi WNW 4.6 mph - N/A   Clear
7:15 PM 51.8 °F - 33.8 °F 50% 30.14 in 10.0 mi SE 5.8 mph - N/A   Clear
7:35 PM 50.0 °F - 33.8 °F 54% 30.14 in 10.0 mi East 5.8 mph - N/A   Clear
7:55 PM 46.4 °F 45.2 °F 32.0 °F 57% 30.15 in 10.0 mi South 3.5 mph - N/A   Clear
8:15 PM 50.0 °F - 35.6 °F 58% 30.16 in 10.0 mi Calm Calm - N/A   Clear
8:35 PM 46.4 °F - 32.0 °F 57% 30.17 in 10.0 mi Calm Calm - N/A   Clear
8:55 PM 44.6 °F 42.2 °F 32.0 °F 61% 30.18 in 10.0 mi SW 4.6 mph - N/A   Clear
9:15 PM 46.4 °F 45.2 °F 33.8 °F 62% 30.19 in 10.0 mi SW 3.5 mph - N/A   Clear
9:35 PM 41.0 °F 39.0 °F 32.0 °F 70% 30.19 in 10.0 mi SSE 3.5 mph - N/A   Clear
9:55 PM 41.0 °F - 32.0 °F 70% 30.20 in 10.0 mi Calm Calm - N/A   Clear
10:15 PM 39.2 °F - 32.0 °F 75% 30.19 in 10.0 mi Calm Calm - N/A   Clear
10:35 PM 37.4 °F - 30.2 °F 75% 30.20 in 10.0 mi Calm Calm - N/A   Clear
10:55 PM 41.0 °F - 33.8 °F 76% 30.20 in 10.0 mi Calm Calm - N/A   Clear
11:15 PM 35.6 °F - 28.4 °F 75% 30.21 in 10.0 mi Calm Calm - N/A   Clear
11:35 PM 35.6 °F 31.7 °F 32.0 °F 87% 30.21 in 10.0 mi SSW 4.6 mph - N/A   Clear
11:55 PM 35.6 °F 31.7 °F 28.4 °F 75% 30.21 in 10.0 mi ENE 4.6 mph - N/A   Clear